This is the latest recevied weather packets stored in our database for station/object N4QD-13. If no packets are shown the sender has not sent any weather packets the latest 10 day(s).
| Time | Temp. | Humidity | Pressure | Rain* | Wind** | Luminosity | Snow |
|---|---|---|---|---|---|---|---|
| 1778000821 | 25.56° C | 43% | 1013.4 hPa | 0 mm | - | 719 W/m² | - |
| 1778000518 | 25.56° C | 43% | 1013.2 hPa | 0 mm | - | 668 W/m² | - |
| 1778000218 | 25.56° C | 42% | 1013.2 hPa | 0 mm | - | 713 W/m² | - |
| 1777999914 | 25.56° C | 42% | 1013.6 hPa | 0 mm | - | 701 W/m² | - |
| 1777999610 | 25.56° C | 42% | 1013.3 hPa | 0 mm | - | 701 W/m² | - |
| 1777999307 | 25.56° C | 41% | 1013.5 hPa | 0 mm | - | 717 W/m² | - |
| 1777999005 | 25° C | 44% | 1013.5 hPa | 0 mm | - | 691 W/m² | - |
| 1777998703 | 25° C | 43% | 1013.7 hPa | 0 mm | - | 707 W/m² | - |
| 1777998400 | 24.44° C | 42% | 1013.8 hPa | 0 mm | - | 615 W/m² | - |
| 1777998098 | 25° C | 43% | 1013.8 hPa | 0 mm | - | 550 W/m² | - |
| 1777997795 | 25° C | 45% | 1013.6 hPa | 0 mm | - | 737 W/m² | - |
| 1777997492 | 25.56° C | 43% | 1013.6 hPa | 0 mm | - | 734 W/m² | - |
| 1777997190 | 24.44° C | 44% | 1013.9 hPa | 0 mm | - | 730 W/m² | - |
| 1777996887 | 25° C | 44% | 1013.9 hPa | 0 mm | - | 736 W/m² | - |
| 1777996583 | 25° C | 47% | 1014 hPa | 0 mm | - | 744 W/m² | - |
| 1777996279 | 24.44° C | 46% | 1014 hPa | 0 mm | - | 736 W/m² | - |
| 1777995975 | 25° C | 47% | 1014.2 hPa | 0 mm | - | 720 W/m² | - |
| 1777995672 | 24.44° C | 48% | 1014.1 hPa | 0 mm | - | 713 W/m² | - |
| 1777995369 | 24.44° C | 47% | 1014.3 hPa | 0 mm | - | 705 W/m² | - |
| 1777995067 | 24.44° C | 49% | 1014.1 hPa | 0 mm | - | 688 W/m² | - |
| 1777994763 | 23.89° C | 49% | 1014.2 hPa | 0 mm | - | 652 W/m² | - |
| 1777994459 | 23.89° C | 49% | 1014.6 hPa | 0 mm | - | 655 W/m² | - |
| 1777994154 | 23.89° C | 50% | 1014.6 hPa | 0 mm | - | 677 W/m² | - |
| 1777993852 | 23.89° C | 50% | 1014.4 hPa | 0 mm | - | 670 W/m² | - |
| 1777993548 | 23.89° C | 49% | 1014.4 hPa | 0 mm | - | 654 W/m² | - |
* Rain latest hour (hover to see other rain measurements)
** Current wind speed in m/s (hover to see current wind gust speed)